THOR AGENA B R/B, 741

Orbit data source: Space-Track

THOR AGENA B R/B, 741 is space debris in LEO originally from a launch on Sat, 25 Jan 1964 UTC launched from the Air Force Western Test Range (AFWTR). Debris objects in space refer to the collection of defunct objects orbiting the Earth. Examples of debris include non-operational satellites, rocket bodies, and fragments generated from explosions, collisions, or faulty payload assembly.

Loading next visibility...
Identifier
741, 1964-004B
Orbit
LEO
Country
Flag of USUS
Related business
Manufacturer
LMSC
Mission
Spacecraft
Bus & Motor
AGENA B, Unknown motor
Mass
~705 kg wet, 705 kg dry
Launch date (UTC)
1964-01-25 (62 years ago)
Launch vehicle
Unknown
Launch site
Air Force Western Test Range (AFWTR)
Object type
Payload
Rocket body
Debris
Shape & HBR
Cyl + 1 Nozzle, 3.1 m
Radar Cross Section
8.306 m², Large (>1 m²)

Expand to show TLE details & history
Last TLE update: 16 hours ago

TLE from 16 hours ago
0 THOR AGENA B R/B
1 00741U 64004B   25260.12925898  .00000026  00000-0  35104-4 0  9990
2 00741  81.4932  25.8925 0171857 201.5563 332.9038 13.23811540976933
Epoch: 2025-09-17T03:06Z
TLE epoch observation values (Epoch: 2025-09-17T03:06:07.975Z)
Latitude
6.30898°
Longitude
162.107°
Altitude
1,057.357 km
Speed
7.379 km/s
True Right ascension
13h 39m 47s
True Declination
6° 16' 23"
Sunlit
Object was in daylight at epoch
Visualization orbit readout
Latitude
Unknown
Longitude
Unknown
Altitude
Unknown
Speed
Unknown
Apparent Right ascension
Unknown
Apparent Declination
Unknown
Sunlit
N/A
Visualization observer readout
Local Sidereal Time
11:36:03
Azimuth
Unknown
Elevation
Unknown
Doppler factor
Unknown
Orbital elements
Apogee altitude
1,297.151 km
Perigee altitude
1,037.798 km
Semi-major axis
7,545.612 km
Eccentricity
0.01719
Inclination
81.4932°
RAAN
25.8925°
Arg. of periapsis
201.5563°
True anomaly
331.98936°
Mean anomaly
332.9038°
Eccentric anomaly
332.44834°
Mean motion
3.31132 °/min
Orbital period
108.72 mins
BSTAR
0.000035104
Loading maneuver chart data...
Computing Atmospheric mass density...
Loading historical data...
Loading historical data...
Loading historical data...
Loading historical data...
Loading historical data...
Loading historical data...
Loading historical data...

Documentation

Showing up to 5 results
|